| time (UTC) | temp F | wind direction | speed knots | gust knots | rain 1hr in | rain 24hr in | rain mn in | humidity % | barometer mb |
| 20260503050004 | 39 | 242 | 1.7 | 3.5 | 0.00 | 0.00 | 0.00 | 78 | 1017.7 |
| 20260503044502 | 39 | 242 | 1.7 | 2.6 | 0.00 | 0.00 | 0.00 | 80 | 1017.7 |
| 20260503043000 | 39 | 245 | 1.7 | 1.7 | 0.00 | 0.00 | 0.00 | 80 | 1017.7 |
| 20260503041502 | 40 | 244 | 1.7 | 1.7 | 0.00 | 0.00 | 0.00 | 78 | 1017.7 |
| 20260503040006 | 40 | 245 | 0.9 | 1.7 | 0.00 | 0.00 | 0.00 | 77 | 1017.7 |
| 20260503034501 | 40 | 244 | 0.9 | 1.7 | 0.00 | 0.00 | 0.00 | 78 | 1017.7 |
| 20260503033002 | 40 | 244 | 1.7 | 2.6 | 0.00 | 0.00 | 0.00 | 77 | 1017.6 |
| 20260503030005 | 41 | 250 | 1.7 | 2.6 | 0.00 | 0.00 | 0.00 | 74 | 1017.8 |
| 20260503023001 | 42 | 338 | 0.0 | 0.9 | 0.00 | 0.00 | 0.00 | 68 | 1017.8 |
| 20260503021501 | 42 | 338 | 0.0 | 0.9 | 0.00 | 0.00 | 0.00 | 74 | 1017.7 |
| 20260503020004 | 43 | 338 | 0.0 | 0.9 | 0.00 | 0.00 | 0.00 | 73 | 1017.6 |
| 20260503014502 | 44 | 338 | 0.0 | 0.9 | 0.00 | 0.00 | 0.00 | 65 | 1017.5 |
| 20260503013001 | 45 | 338 | 0.0 | 0.0 | 0.00 | 0.00 | 0.00 | 64 | 1017.4 |
| 20260503010004 | 46 | 338 | 0.0 | 0.9 | 0.00 | 0.00 | 0.00 | 53 | 1017.4 |
| 20260503004501 | 48 | 338 | 0.9 | 0.9 | 0.00 | 0.00 | 0.00 | 51 | 1017.4 |
| 20260503003002 | 48 | 338 | 1.7 | 2.6 | 0.00 | 0.00 | 0.00 | 51 | 1017.3 |
| 20260503001502 | 49 | 333 | 1.7 | 2.6 | 0.00 | 0.00 | 0.00 | 49 | 1017.1 |
| 20260503000004 | 50 | 332 | 1.7 | 2.6 | 0.00 | 0.00 | 0.00 | 45 | 1017.1 |
| 20260502234502 | 50 | 342 | 1.7 | 3.5 | 0.00 | 0.00 | 0.00 | 48 | 1017.1 |
| 20260502233001 | 50 | 339 | 2.6 | 5.2 | 0.00 | 0.00 | 0.00 | 45 | 1017.1 |
| 20260502231501 | 51 | 330 | 3.5 | 5.2 | 0.00 | 0.00 | 0.00 | 46 | 1017.1 |
| 20260502230005 | 51 | 314 | 4.3 | 8.7 | 0.00 | 0.00 | 0.00 | 46 | 1017.2 |
| 20260502224502 | 52 | 328 | 3.5 | 6.1 | 0.00 | 0.00 | 0.00 | 47 | 1017.1 |
| 20260502223001 | 50 | 340 | 1.7 | 4.3 | 0.00 | 0.00 | 0.00 | 47 | 1017.2 |
| 20260502220004 | 50 | 338 | 2.6 | 5.2 | 0.00 | 0.00 | 0.00 | 47 | 1017.2 |
| 20260502214501 | 50 | 4 | 2.6 | 5.2 | 0.00 | 0.00 | 0.00 | 49 | 1017.2 |
| 20260502211501 | 52 | 295 | 4.3 | 7.8 | 0.00 | 0.00 | 0.00 | 45 | 1017.0 |
| 20260502210003 | 50 | 333 | 2.6 | 6.1 | 0.00 | 0.00 | 0.00 | 49 | 1017.2 |
| 20260502204501 | 51 | 311 | 3.5 | 6.1 | 0.00 | 0.00 | 0.00 | 50 | 1017.3 |
| 20260502201501 | 51 | 340 | 2.6 | 6.1 | 0.00 | 0.00 | 0.00 | 53 | 1017.6 |
| 20260502200006 | 50 | 342 | 1.7 | 6.1 | 0.00 | 0.00 | 0.00 | 54 | 1017.8 |
| 20260502193001 | 48 | 328 | 2.6 | 5.2 | 0.00 | 0.00 | 0.00 | 54 | 1018.0 |
| 20260502191501 | 49 | 338 | 2.6 | 4.3 | 0.00 | 0.00 | 0.00 | 51 | 1018.1 |
| 20260502190005 | 49 | 37 | 2.6 | 5.2 | 0.00 | 0.00 | 0.00 | 58 | 1018.3 |
| 20260502184502 | 49 | 334 | 2.6 | 5.2 | 0.00 | 0.00 | 0.00 | 53 | 1018.3 |
| 20260502183001 | 48 | 332 | 1.7 | 4.3 | 0.00 | 0.00 | 0.00 | 62 | 1018.4 |
| 20260502163000 | 46 | 351 | 2.6 | 5.2 | 0.00 | 0.00 | 0.00 | 64 | 1019.1 |
| 20260502151501 | 44 | 342 | 0.9 | 3.5 | 0.00 | 0.00 | 0.00 | 63 | 1019.2 |
| 20260502123001 | 37 | 25 | 0.0 | 1.7 | 0.00 | 0.00 | 0.00 | 77 | 1018.7 |
| 20260502121500 | 37 | 26 | 0.9 | 1.7 | 0.00 | 0.00 | 0.00 | 77 | 1018.7 |
| 20260502114500 | 35 | 26 | 0.0 | 0.9 | 0.00 | 0.00 | 0.00 | 78 | 1018.3 |
| 20260502112959 | 35 | 26 | 0.9 | 0.9 | 0.00 | 0.00 | 0.00 | 78 | 1018.1 |
| 20260502111500 | 34 | 26 | 0.9 | 0.9 | 0.00 | 0.00 | 0.00 | 79 | 1018.1 |
| 20260502110004 | 34 | 26 | 0.0 | 0.0 | 0.00 | 0.00 | 0.00 | 80 | 1018.2 |
| 20260502104500 | 34 | 26 | 0.0 | 0.0 | 0.00 | 0.01 | 0.00 | 77 | 1018.0 |
| 20260502103001 | 35 | 26 | 0.0 | 0.9 | 0.00 | 0.01 | 0.00 | 77 | 1017.9 |
| 20260502101459 | 36 | 26 | 0.0 | 0.9 | 0.00 | 0.01 | 0.00 | 76 | 1018.0 |
| 20260502071500 | 39 | 357 | 0.0 | 0.9 | 0.00 | 0.07 | 0.00 | 80 | 1017.6 |
| 20260502070003 | 39 | 357 | 0.0 | 0.9 | 0.00 | 0.07 | 0.00 | 78 | 1017.7 |
| 20260502064501 | 39 | 357 | 0.0 | 0.9 | 0.00 | 0.08 | 0.00 | 79 | 1017.6 |
| 20260502060001 | 40 | 25 | 0.9 | 1.7 | 0.00 | 0.08 | 0.00 | 78 | 1018.0 |
| 20260502054500 | 40 | 29 | 0.0 | 1.7 | 0.00 | 0.09 | 0.00 | 78 | 1018.0 |
| 20260502052959 | 41 | 29 | 0.0 | 0.9 | 0.00 | 0.09 | 0.00 | 76 | 1018.0 |
| 20260502051459 | 41 | 29 | 0.0 | 1.7 | 0.00 | 0.09 | 0.00 | 74 | 1018.1 |